#timestamp,LO_Frequency,Hit,StdDev 
1592143215.4,286046982.8,N
1592143235.2,286046980.6,N
1592143255.0,286046982.4,N
1592143255.9,286046982.4,N
1592143275.8,286046979.2,N
1592143295.6,286046977.7,N
1592143315.5,286046980.1,N
1592143335.3,286046981.1,N
1592143355.1,286046982.9,N
1592143375.9,286046981.4,N
1592143395.7,286046979.0,Y
1592143415.6,286046997.5,P
1592143435.4,286046997.1,N
1592143455.2,286046995.1,N
1592143475.1,286046997.0,N
1592143476.0,286046997.0,N
1592143495.8,286047003.1,N
1592143515.7,286047001.0,N
1592143535.5,286047000.4,N
1592143555.3,286047004.3,N
1592143575.2,286047004.3,N
1592143595.0,286047006.7,N
1592143595.9,286047006.7,N
1592143615.7,286047010.3,N
1592143635.6,286047008.3,N
1592143655.4,286047012.9,N
1592143675.3,286047018.2,N
1592143695.1,286047019.1,N
1592143715.8,286047019.1,N
1592143735.7,286047021.0,N
1592143755.5,286047023.0,N
1592143775.4,286047023.4,N
1592143795.2,286047024.3,N
1592143815.0,286047024.0,N
1592143815.9,286047024.0,N
1592143835.8,286047023.9,N
1592143855.6,286047026.5,N
1592143875.4,286047023.9,N
1592143895.3,286047026.8,N
1592143915.1,286047024.3,N
1592143935.9,286047022.4,N
1592143955.7,286047025.1,N
1592143975.5,286047022.9,N
1592143995.4,286047023.3,N
1592144015.2,286047021.6,N
1592144035.1,286047019.7,N
1592144036.0,286047019.7,N
1592144055.8,286047021.9,N
1592144075.6,286047023.6,Y
1592144095.5,286047003.9,P
1592144115.3,286047002.3,N
1592144135.2,286047004.4,N
1592144155.9,286047006.8,N
1592144175.7,286047007.5,N
1592144195.6,286047008.2,N
1592144215.4,286047009.0,N
1592144235.2,286047009.9,N
1592144255.1,286047009.6,N
1592144256.0,286047009.6,N
1592144275.8,286047009.4,N
1592144295.7,286047010.9,N
1592144315.5,286047015.3,Y
1592144335.3,286047008.7,P
1592144355.2,286047006.4,P
1592144375.0,286047009.0,P
1592144375.9,286047009.0,Y
1592144395.8,286047004.3,P
1592144415.6,286047004.3,N
1592144435.4,286047003.4,N
1592144455.3,286047004.0,N
1592144475.1,286047005.9,Y
1592144495.9,286047000.9,P
1592144515.7,286047000.4,N
1592144535.5,286047001.3,N
1592144555.4,286047003.2,N
1592144575.2,286047005.4,Y
1592144595.1,286047001.9,P
1592144596.0,286047001.9,P
1592144615.8,286047002.2,P
1592144635.6,286047002.0,Y
1592144655.5,286047000.5,P
1592144675.3,286046998.2,N
1592144695.1,286046998.6,N
1592144715.9,286046998.6,N
1592144735.7,286047001.1,N
1592144755.6,286047000.7,N
1592144775.4,286047000.8,N
1592144795.2,286047001.1,N
1592144815.1,286046995.3,Y
1592144816.0,286046995.3,P
1592144835.8,286046995.7,N
1592144855.6,286046996.0,N
1592144875.5,286047001.7,N
1592144895.3,286047007.5,N
1592144915.2,286047012.0,N
1592144935.9,286047015.0,N
1592144955.7,286047019.8,N
1592144975.6,286047022.6,N
1592144995.4,286047024.8,N
1592145015.2,286047019.0,N
1592145035.1,286047022.3,N
1592145036.0,286047022.3,N
1592145055.8,286047022.6,N
1592145075.7,286047027.6,N
1592145095.5,286047032.1,N
1592145115.3,286047035.4,N
1592145135.2,286047037.4,N
1592145155.0,286047035.3,N
1592145155.9,286047035.3,N
1592145175.8,286047035.0,N
1592145195.6,286047037.7,N
1592145215.4,286047037.6,N
1592145235.3,286047038.4,N
1592145255.1,286047041.8,N
1592145275.8,286047043.5,N
1592145295.7,286047043.7,N
1592145315.5,286047045.8,Y
1592145335.4,286047017.3,P
1592145355.2,286047018.2,P
1592145375.0,286047016.7,P
1592145375.9,286047016.7,Y
1592145395.8,286046995.3,P
1592145415.6,286046996.1,N
1592145435.4,286046993.2,N
1592145455.3,286046987.7,N
1592145475.1,286046982.5,N
1592145495.9,286046981.6,N
1592145515.7,286046981.0,N
1592145535.6,286046982.2,N
1592145555.4,286046982.1,N
1592145575.2,286046983.0,N
1592145595.1,286046985.2,N
1592145596.0,286046985.2,N
1592145615.8,286046983.4,N
1592145635.6,286046986.5,N
1592145655.5,286046989.6,N
1592145675.3,286046991.3,N
1592145695.1,286046994.5,N
1592145715.9,286046995.9,N
1592145735.7,286046991.4,N
1592145755.6,286046988.8,N
1592145775.4,286046989.0,N
1592145795.2,286046989.0,N
1592145815.1,286046988.7,N
1592145816.0,286046988.7,N
1592145835.8,286046989.4,N
1592145855.6,286046991.1,N
1592145875.5,286046995.0,N
1592145895.3,286046998.8,N
1592145915.2,286047004.3,N
1592145935.9,286047005.2,N
1592145955.7,286047008.4,N
1592145975.6,286047013.8,N
1592145995.4,286047015.4,N
1592146015.2,286047014.7,N
1592146035.1,286047016.4,N
1592146036.0,286047016.4,N
1592146055.8,286047017.9,N
1592146075.7,286047018.2,N
1592146095.5,286047016.0,N
1592146115.3,286047013.0,N
1592146135.2,286047013.2,N
1592146155.0,286047011.2,N
1592146155.9,286047011.2,N
1592146175.7,286047007.9,N
1592146195.6,286047008.7,N
1592146215.4,286047006.7,N
1592146235.3,286047005.6,N
1592146255.1,286047002.0,N
1592146256.0,286047002.0,N
1592146275.8,286047003.5,N
1592146295.7,286047005.7,N
1592146315.5,286047004.7,N
1592146335.3,286047003.6,N
1592146355.2,286047001.4,N
1592146375.0,286047000.3,N
1592146375.9,286047000.3,N
1592146395.8,286047000.6,N
1592146415.6,286046999.6,N
1592146435.4,286046997.4,N
1592146455.3,286046996.3,N
1592146475.1,286046996.1,N
1592146495.8,286046995.1,N
1592146515.7,286046994.4,N
1592146535.5,286046992.2,N
1592146555.4,286046996.0,N
1592146575.2,286046995.3,N
1592146595.0,286046993.3,N
1592146595.9,286046993.3,N
1592146615.8,286046988.5,N
1592146635.6,286046991.3,N
1592146655.4,286046994.1,N
1592146675.3,286046993.8,N
1592146695.1,286046994.7,N
1592146715.9,286046990.3,N
1592146735.7,286046989.1,N
1592146755.5,286046987.1,N
1592146775.4,286046985.4,N
1592146795.2,286046984.2,N
